This is the latest recevied weather packets stored in our database for station/object N2XP. If no packets are shown the sender has not sent any weather packets the latest 10 day(s).
| Time | Temp. | Humidity | Pressure | Rain* | Wind** | Luminosity | Snow |
|---|---|---|---|---|---|---|---|
| 1777909554 | 18.89° C | 43% | 1010.7 hPa | 0 mm | - | - | - |
| 1777908628 | 18.33° C | 44% | 1010.8 hPa | 0 mm | - | - | - |
| 1777907737 | 18.33° C | 41% | 1010.9 hPa | 0 mm | - | - | - |
| 1777906821 | 18.33° C | 43% | 1011 hPa | 0 mm | - | - | - |
| 1777905927 | 17.22° C | 43% | 1011.1 hPa | 0 mm | - | - | - |
| 1777905019 | 17.78° C | 43% | 1011.2 hPa | 0 mm | - | - | - |
| 1777904129 | 17.22° C | 48% | 1011.2 hPa | 0 mm | - | - | - |
| 1777903215 | 16.11° C | 45% | 1011.3 hPa | 0 mm | - | - | - |
| 1777902304 | 15.56° C | 48% | 1011.5 hPa | 0 mm | - | - | - |
| 1777901461 | 14.44° C | 50% | 1011.6 hPa | 0 mm | - | - | - |
| 1777900555 | 13.89° C | 54% | 1011.7 hPa | 0 mm | - | - | - |
| 1777899650 | 12.22° C | 56% | 1011.9 hPa | 0 mm | - | - | - |
| 1777898747 | 11.11° C | 60% | 1012.2 hPa | 0 mm | - | - | - |
| 1777897844 | 10.56° C | 60% | 1012.3 hPa | 0 mm | - | - | - |
| 1777896956 | 10° C | 62% | 1012.3 hPa | 0 mm | - | - | - |
| 1777896042 | 8.89° C | 64% | 1012.3 hPa | 0 mm | - | - | - |
| 1777895129 | 8.33° C | 71% | 1012.3 hPa | 0 mm | - | - | - |
| 1777894225 | 7.78° C | 72% | 1012.3 hPa | 0 mm | - | - | - |
| 1777893322 | 6.11° C | 74% | 1012.3 hPa | 0 mm | - | - | - |
| 1777892418 | 5° C | 82% | 1012.3 hPa | 0 mm | - | - | - |
| 1777891519 | 3.89° C | 81% | 1012.3 hPa | 0 mm | - | - | - |
| 1777890619 | 3.89° C | 80% | 1012.3 hPa | 0 mm | - | - | - |
| 1777889718 | 3.89° C | 81% | 1012.3 hPa | 0 mm | - | - | - |
| 1777888821 | 3.33° C | 82% | 1012.1 hPa | 0 mm | - | - | - |
| 1777887913 | 3.33° C | 83% | 1012.1 hPa | 0 mm | - | - | - |
* Rain latest hour (hover to see other rain measurements)
** Current wind speed in m/s (hover to see current wind gust speed)